Cloud_Cover
0 0 0 0 0 4 98 2 5 5 0 5 0 0 0 0 0 0 0 0 0 0 0 0 0 0 0 0 0 0 0 0 0 7 5 6 2 0 19 24 22 23 20 1
0 0 0 0 0 0 3 5 5 8 5 4 4 0 0 0 0 0 0 0 0 0 0 0 0 0 0 0 0 0 0 0 0 0 0 13 46 29 7 23 19 4 17 21
0 0 0 0 0 0 0 2 5 71 5 5 5 0 0 0 0 0 0 0 0 0 0 0 0 0 0 0 0 0 0 0 0 0 3 16 8 3 23 3 3 0 3 2
0 0 0 0 0 0 0 0 4 77 7 5 0 5 5 1 0 0 0 0 0 0 0 0 0 0 0 0 0 0 0 0 0 0 0 0 0 0 0 0 0 0 0 0
0 0 0 0 0 0 0 0 0 37 40 90 66 4 5 2 0 0 0 0 0 0 0 0 0 0 0 0 0 0 0 0 0 0 0 0 0 0 0 0 0 0 0 4
0 0 0 0 0 0 0 2 0 5 92 91 81 46 5 4 0 0 0 0 0 0 0 0 0 0 0 0 0 0 0 0 0 0 0 0 0 0 0 0 0 0 0 90
2 0 0 0 0 0 0 0 2 5 46 53 95 35 2 6 4 4 2 0 0 0 0 0 0 0 0 0 0 0 0 0 0 0 0 0 0 0 0 6 2 0 3 50
0 0 0 0 0 0 0 0 1 5 66 76 22 16 0 0 0 3 5 0 0 0 0 0 0 0 0 0 0 0 0 0 0 0 0 0 0 0 0 7 0 1 23 84
0 0 0 0 0 0 0 0 0 51 79 90 14 6 0 1 4 0 0 0 0 0 0 0 0 0 0 0 0 0 0 0 0 0 0 0 0 0 0 1 5 96 8 70
0 0 0 0 0 0 0 0 0 2 75 100 5 11 0 0 0 0 0 0 0 0 0 0 0 0 0 0 0 0 0 0 0 0 0 0 0 0 1 59 3 5 4 84
0 0 0 0 0 0 0 0 0 4 5 38 8 0 0 0 0 0 0 0 3 4 0 0 0 0 0 0 0 0 0 0 0 0 0 0 0 0 5 37 51 64 6 14
0 1 0 0 0 0 0 0 0 0 2 5 13 4 5 1 0 0 0 0 0 0 0 0 0 0 0 0 0 0 0 0 0 0 0 0 0 0 0 5 78 4 96 80
0 0 3 0 0 0 0 0 0 4 0 0 3 1 3 0 0 0 0 0 0 0 0 0 0 0 0 0 0 0 0 0 0 0 0 0 0 0 5 0 0 0 42 4
0 0 0 0 0 0 0 0 0 0 4 3 5 95 6 2 0 0 0 0 0 0 0 0 0 0 0 0 0 0 0 0 0 0 0 0 5 5 5 0 0 0 4 3
0 0 1 0 1 4 0 0 0 0 0 1 2 4 100 85 9 0 0 0 0 0 0 0 0 0 0 0 0 0 0 0 0 0 0 0 33 54 2 0 0 5 9 8
0 0 0 0 0 0 4 1 0 0 0 0 0 0 5 99 100 51 0 0 0 0 0 0 0 0 1 0 0 0 0 0 0 0 0 1 46 61 2 18 0 0 5 4
0 0 0 0 2 1 5 1 1 0 0 0 0 0 5 5 5 21 5 0 0 0 0 0 2 28 70 1 0 0 0 0 0 0 0 2 31 53 55 75 48 16 5 1
0 0 0 0 58 91 1 7 2 0 0 0 0 0 0 0 3 1 0 0 0 0 4 2 5 5 1 0 0 0 0 0 0 0 0 1 34 25 50 94 99 44 1 13
0 0 22 49 86 79 5 3 0 0 0 0 0 0 0 0 0 0 0 0 0 0 0 0 0 0 0 0 0 0 0 0 0 0 0 1 14 29 90 100 100 100 96 42
0 0 5 100 100 100 100 6 0 0 0 0 0 0 0 0 0 0 0 0 0 0 0 0 0 2 5 0 0 0 0 0 3 4 0 0 2 40 78 82 100 100 100 100
5 5 1 4 100 100 29 2 0 5 0 0 0 0 0 0 0 0 0 0 0 0 0 0 0 5 5 5 5 2 3 2 58 74 9 2 8 16 49 100 100 97 95 100
19 5 5 59 100 95 5 0 7 3 0 0 0 0 0 0 0 0 0 0 0 4 4 0 3 5 84 62 58 9 61 87 54 87 8 24 38 88 100 100 100 100 100 100
94 5 70 40 94 6 3 3 100 100 1 0 0 0 0 0 0 0 0 0 2 5 5 5 2 5 8 83 100 71 77 93 10 8 16 78 99 100 100 100 100 100 100 100
97 100 98 74 2 0 0 55 94 100 4 0 30 2 1 0 0 0 5 0 5 66 5 1 11 20 50 88 13 82 44 4 7 43 100 98 100 92 96 100 100 100 100 100
80 99 100 100 88 0 21 100 94 100 100 54 19 38 72 36 4 0 16 75 2 5 100 100 96 97 100 88 34 5 5 8 50 96 100 100 100 100 100 100 100 99 99 78
100 100 100 97 5 30 100 100 100 100 100 100 68 11 1 0 5 74 100 100 71 19 25 99 94 100 100 93 34 41 44 34 68 99 100 98 92 96 70 7 3 71 39 70